User: anonymous   Login
Location: Unspecified
(0.0000°N, 0.0000°E)
Time: 23:27:45
(UTC+00:00)
Language:

Explorer 11/Cluster Stage 4 - Orbit

View from above orbital plane
View from above orbital plane
View from above satellite
View from above satellite

Ground track
Ground track

The orbit is defined by the following mean orbital elements,

1 00107U          26073.54634750 +.00000000 +00000-0 +44426-3 0 00006
2 00107  28.7764 141.9952 0494383 324.5714  32.2951 14.21778093    06
Epoch (UTC): 14 March 2026 13:06:44
Eccentricity: 0.0494383
inclination: 28.7764°
perigee height: 464 km
apogee height: 1175 km
right ascension of ascending node: 141.9952°
argument of perigee: 324.5714°
revolutions per day: 14.21778093
mean anomaly at epoch: 32.2951°

The dashed part of the orbit path shows where the satellite is in the earth's shadow,  

DLR